[[{"header":{"parameterUnit":"m.s-1","parameterCategory":1,"la1":30.2991,"la2":30.254,"lo1":-89.0895,"lo2":-89.0444,"dy":0.0017,"dx":0.0017,"nx":28,"ny":28,"refTime":"2024-03-06T09:00:00:Z","depth":0,"parameterNumber":2,"parameterNumberName":"U-component_of_WINDS"},"data":[0,0,0,0,0,0,0,0,0,0,0,0,0,0,0,0,0,0,0,0,0,0,0,0,0,0,0,0,0,0,0,0,0,0,0,0,0,0,0,0,0,0,0,0,0,0,0,0,0,0,0,0,0,0,0,0,0,0,-0.8335,-0.8335,0,-0.8334,-0.8334,-0.8334,-0.832,-0.8319,-0.8319,-0.8319,-0.8318,-0.8318,-0.8319,0,0,0,0,0,0,0,0,0,0,0,0,0,-0.8326,-0.8326,-0.8335,-0.8335,-0.8335,-0.8334,-0.8334,-0.8334,-0.832,-0.8319,-0.8319,-0.8318,-0.8318,-0.8318,-0.8319,0,0,0,0,0,0,0,0,0,0,0,0,0,-0.8328,-0.8326,-0.8335,-0.8328,-0.8327,-0.8334,-0.8334,-0.8334,-0.832,-0.8319,-0.8319,-0.8318,-0.8318,-0.8318,-0.8319,-0.8332,0,0,-0.832,-0.832,0,0,0,0,0,0,0,0,-0.8328,-0.8328,-0.8329,-0.8328,-0.8328,-0.8326,-0.833,-0.8333,-0.832,-0.8323,-0.8319,-0.8318,-0.8321,-0.8321,-0.8322,-0.8332,-0.8332,-0.832,-0.8321,-0.8321,-0.8321,0,0,0,0,0,0,0,-0.8328,-0.8328,-0.8335,-0.8329,-0.8328,-0.8325,-0.8325,-0.8331,-0.8325,-0.8322,-0.8321,-0.8321,-0.8321,-0.8322,-0.8322,-0.8332,-0.832,-0.8321,-0.8321,-0.8321,-0.8353,-0.8354,0,0,0,0,0,0,-0.8328,-0.8328,-0.8335,-0.8335,-0.8326,-0.8325,-0.8325,-0.8327,-0.8325,-0.8324,-0.8322,-0.8321,-0.8321,-0.8322,-0.8322,-0.8338,-0.8321,-0.8321,-0.8321,-0.8352,-0.8353,-0.8354,0,0,0,0,0,0,-0.8328,-0.8329,-0.8335,-0.8331,-0.8331,-0.8326,-0.8329,-0.8328,-0.8329,-0.8324,-0.8323,-0.8324,-0.8321,-0.8322,-0.833,-0.8338,-0.8321,-0.8322,-0.8352,-0.8353,-0.8353,-0.837,0,0,0,0,0,0,-0.8328,-0.8329,-0.8334,-0.8331,-0.8332,-0.8342,-0.8329,-0.8328,-0.8329,-0.8328,-0.8326,-0.8325,-0.8321,-0.8329,-0.833,-0.8338,-0.8322,-0.8351,-0.8352,-0.8353,-0.8368,-0.8371,-0.8373,0,0,0,0,0,-0.8328,-0.8339,-0.8335,-0.8335,-0.8338,-0.8343,-0.8343,-0.8337,-0.833,-0.8335,-0.8332,-0.8325,-0.8337,-0.833,-0.8331,-0.8339,-0.8351,-0.8352,-0.8353,-0.8367,-0.837,-0.8373,0,0,0,0,0,0,-0.8344,-0.8339,-0.8334,-0.8344,-0.8344,-0.834,-0.8347,-0.8341,-0.8343,-0.8341,-0.8334,-0.8334,-0.8343,-0.8342,-0.8335,-0.8352,-0.8342,-0.8344,-0.8353,-0.8356,-0.8358,-0.8358,-0.8323,0,0,0,0,0,-0.8348,-0.8352,-0.8348,-0.8358,-0.8358,-0.8352,-0.8354,-0.8349,-0.8349,-0.8349,-0.8347,-0.8347,-0.835,-0.8353,-0.8356,-0.8368,-0.8367,-0.8374,-0.8376,-0.8378,-0.838,-0.8386,-0.8389,-0.8358,-0.8358,-0.8358,0,0,-0.8358,-0.8356,-0.8359,-0.8361,-0.836,-0.8365,-0.8352,-0.8358,-0.8361,-0.835,-0.8358,-0.8356,-0.8355,-0.8366,-0.837,-0.8365,-0.8388,-0.838,-0.8381,-0.8382,-0.8388,-0.839,-0.8393,-0.8359,-0.8359,-0.8358,0,0,-0.8378,-0.8377,-0.8385,-0.8384,-0.8383,-0.8379,-0.8381,-0.8378,-0.8377,-0.8384,-0.8376,-0.838,-0.8386,-0.8386,-0.8387,-0.8406,-0.84,-0.8407,-0.842,-0.8426,-0.8428,-0.843,-0.8437,-0.844,-0.8409,-0.8409,-0.8409,0,-0.8391,-0.8397,-0.839,-0.8396,-0.8397,-0.8386,-0.8394,-0.8394,-0.8394,-0.8395,-0.8389,-0.8396,-0.8395,-0.8405,-0.841,-0.8411,-0.8413,-0.8408,-0.8428,-0.843,-0.8432,-0.8439,-0.8442,-0.841,-0.841,-0.8409,-0.8409,0,-0.8412,-0.8417,-0.8424,-0.8423,-0.8425,-0.8432,-0.8426,-0.8428,-0.8423,-0.842,-0.8428,-0.8426,-0.8428,-0.843,-0.8426,-0.844,-0.8436,-0.843,-0.842,-0.8436,-0.8443,-0.8445,-0.8411,-0.8411,-0.841,-0.841,0,0,-0.8443,-0.8439,-0.8441,-0.8441,-0.8439,-0.8442,-0.8448,-0.845,-0.8453,-0.8453,-0.8458,-0.8463,-0.8457,-0.8457,-0.8453,-0.8458,-0.8473,-0.845,-0.845,-0.8455,-0.8489,-0.8494,-0.8497,-0.8469,-0.8469,-0.847,-0.8489,0,-0.8463,-0.8474,-0.8467,-0.8478,-0.8482,-0.8472,-0.8478,-0.8477,-0.8474,-0.8477,-0.8474,-0.8477,-0.8468,-0.8469,-0.8474,-0.8471,-0.848,-0.8469,-0.8474,-0.8474,-0.8475,-0.85,-0.8506,-0.8524,-0.8491,-0.8492,-0.8492,0,-0.8488,-0.8488,-0.85,-0.8497,-0.8498,-0.8503,-0.8504,-0.8507,-0.8506,-0.8504,-0.8504,-0.8498,-0.8504,-0.8494,-0.8502,-0.8494,-0.8496,-0.8495,-0.8495,-0.8496,-0.8485,-0.8502,-0.853,-0.8533,-0.8496,-0.8495,-0.8495,0,-0.8509,-0.8513,-0.8521,-0.8521,-0.8517,-0.8521,-0.8519,-0.8517,-0.8519,-0.852,-0.8521,-0.8522,-0.8523,-0.8525,-0.8519,-0.8512,-0.8528,-0.8517,-0.8526,-0.8526,-0.853,-0.853,-0.8559,-0.8531,-0.8531,-0.8531,-0.8531,0,-0.8532,-0.854,-0.8531,-0.8535,-0.8544,-0.8536,-0.8544,-0.8542,-0.854,-0.8544,-0.8535,-0.8539,-0.8531,-0.8534,-0.853,-0.8537,-0.8538,-0.8536,-0.8535,-0.8537,-0.8537,-0.8538,-0.8537,-0.8531,-0.8531,-0.8531,-0.8531,0,-0.8558,-0.8552,-0.856,-0.8555,-0.8554,-0.856,-0.8556,-0.8561,-0.8557,-0.8562,-0.8563,-0.8557,-0.856,-0.8554,-0.8557,-0.8554,-0.8564,-0.8561,-0.8565,-0.8564,-0.8573,-0.8572,-0.8604,-0.8608,-0.8577,-0.8577,-0.8577,0,-0.8574,-0.8579,-0.8575,-0.8577,-0.8576,-0.8579,-0.858,-0.8572,-0.8574,-0.8573,-0.8577,-0.858,-0.8581,-0.8587,-0.8583,-0.8585,-0.8582,-0.8592,-0.8582,-0.8584,-0.8582,-0.8582,-0.8583,-0.8595,-0.8595,-0.8596,-0.8596,0,-0.8601,-0.8598,-0.86,-0.8601,-0.8602,-0.8603,-0.8602,-0.8604,-0.8596,-0.8598,-0.8602,-0.8603,-0.8605,-0.8608,-0.8608,-0.8607,-0.86,-0.8599,-0.8601,-0.8604,-0.8606,-0.8605,-0.8571,-0.8599,-0.8598,-0.8598,-0.8598,-0.8598,-0.8623,-0.8627,-0.8625,-0.8627,-0.8626,-0.8626,-0.8629,-0.8625,-0.8628,-0.8629,-0.8624,-0.8628,-0.8626,-0.8627,-0.8626,-0.8629,-0.8624,-0.8627,-0.8628,-0.8629,-0.8631,-0.8605,-0.8629,-0.8629,-0.8629,-0.8629,-0.8629,0,-0.865,-0.8648,-0.865,-0.865,-0.8652,-0.8644,-0.8643,-0.8646,-0.8649,-0.8648,-0.8649,-0.8653,-0.8655,-0.8651,-0.8653,-0.8656,-0.8653,-0.8657,-0.8657,-0.8656,-0.8635,-0.8633,-0.8659,-0.8659,-0.8659,-0.8659,-0.8659,-0.8659,-0.8665,-0.8672,-0.8668,-0.8674,-0.8672,-0.8676,-0.8676,-0.8676,-0.8675,-0.8679,-0.868,-0.8677,-0.8675,-0.8676,-0.8678,-0.8677,-0.8678,-0.8683,-0.868,-0.8661,-0.8658,-0.8655,-0.8653,-0.8683,-0.8683,-0.8701,-0.8702,-0.8702]},{"header":{"parameterUnit":"m.s-1","parameterCategory":1,"la1":30.2991,"la2":30.254,"lo1":-89.0895,"lo2":-89.0444,"dy":0.0017,"dx":0.0017,"nx":28,"ny":28,"refTime":"2024-03-06T09:00:00:Z","depth":0,"parameterNumber":3,"parameterNumberName":"V-component_of_WINDS"},"data":[0,0,0,0,0,0,0,0,0,0,0,0,0,0,0,0,0,0,0,0,0,0,0,0,0,0,0,0,0,0,0,0,0,0,0,0,0,0,0,0,0,0,0,0,0,0,0,0,0,0,0,0,0,0,0,0,0,0,-2.5453,-2.5454,0,-2.5518,-2.5518,-2.5519,-2.5521,-2.552,-2.5519,-2.5519,-2.5582,-2.5584,-2.5587,0,0,0,0,0,0,0,0,0,0,0,0,0,-2.5329,-2.5331,-2.5453,-2.5454,-2.5455,-2.5517,-2.5518,-2.5519,-2.5521,-2.552,-2.5519,-2.5518,-2.5581,-2.5584,-2.5587,0,0,0,0,0,0,0,0,0,0,0,0,0,-2.5387,-2.5332,-2.5453,-2.5463,-2.5465,-2.5517,-2.5518,-2.5519,-2.5521,-2.552,-2.5519,-2.5518,-2.558,-2.5584,-2.5587,-2.5633,0,0,-2.5598,-2.56,0,0,0,0,0,0,0,0,-2.5384,-2.5392,-2.5461,-2.5463,-2.5464,-2.551,-2.5498,-2.5557,-2.5522,-2.55,-2.5519,-2.5517,-2.5559,-2.5564,-2.5579,-2.5636,-2.5639,-2.5599,-2.5601,-2.5603,-2.5604,0,0,0,0,0,0,0,-2.538,-2.5389,-2.5478,-2.5462,-2.5464,-2.5464,-2.5471,-2.5509,-2.5535,-2.5501,-2.5502,-2.551,-2.556,-2.5575,-2.558,-2.564,-2.5599,-2.5602,-2.5604,-2.5606,-2.5738,-2.574,0,0,0,0,0,0,-2.5374,-2.5385,-2.5476,-2.548,-2.542,-2.5467,-2.5475,-2.5496,-2.5535,-2.5539,-2.551,-2.5509,-2.557,-2.5576,-2.5582,-2.5639,-2.5602,-2.5606,-2.5608,-2.5737,-2.5739,-2.574,0,0,0,0,0,0,-2.5371,-2.5382,-2.5474,-2.5433,-2.5445,-2.547,-2.5495,-2.5498,-2.5514,-2.5541,-2.5546,-2.5522,-2.5569,-2.5577,-2.5621,-2.5641,-2.5608,-2.5611,-2.5735,-2.5738,-2.5739,-2.5752,0,0,0,0,0,0,-2.5368,-2.5381,-2.5399,-2.5433,-2.5447,-2.5512,-2.5496,-2.55,-2.5521,-2.552,-2.5553,-2.5558,-2.5569,-2.5615,-2.5624,-2.5646,-2.5614,-2.5734,-2.5736,-2.5739,-2.575,-2.5755,-2.5758,0,0,0,0,0,-2.5363,-2.54,-2.54,-2.5411,-2.547,-2.5513,-2.5521,-2.5533,-2.5522,-2.5541,-2.5558,-2.5557,-2.5638,-2.562,-2.563,-2.5653,-2.5733,-2.5736,-2.5739,-2.5748,-2.5754,-2.5758,0,0,0,0,0,0,-2.5366,-2.5404,-2.5405,-2.5454,-2.548,-2.5513,-2.5537,-2.5538,-2.5568,-2.5566,-2.5579,-2.5587,-2.563,-2.5646,-2.5625,-2.5699,-2.5684,-2.5689,-2.5688,-2.5693,-2.5697,-2.5692,-2.5617,0,0,0,0,0,-2.5372,-2.5405,-2.5436,-2.5476,-2.5489,-2.5511,-2.553,-2.5537,-2.5565,-2.5576,-2.5596,-2.5622,-2.5654,-2.5674,-2.5704,-2.5752,-2.576,-2.5773,-2.5777,-2.578,-2.5784,-2.5811,-2.5818,-2.575,-2.575,-2.575,0,0,-2.5385,-2.541,-2.543,-2.5477,-2.5498,-2.5531,-2.552,-2.5555,-2.5579,-2.5581,-2.5623,-2.564,-2.5669,-2.5716,-2.5737,-2.573,-2.5805,-2.5784,-2.5786,-2.5789,-2.5815,-2.5822,-2.5827,-2.5752,-2.5752,-2.5752,0,0,-2.5426,-2.5448,-2.5484,-2.5506,-2.5539,-2.5553,-2.5562,-2.5595,-2.5606,-2.565,-2.5652,-2.568,-2.5734,-2.5756,-2.5773,-2.5823,-2.5823,-2.5833,-2.5854,-2.588,-2.5885,-2.589,-2.5908,-2.5914,-2.5837,-2.5837,-2.5837,0,-2.5438,-2.5488,-2.5502,-2.5538,-2.5558,-2.5563,-2.5599,-2.5619,-2.566,-2.5674,-2.5665,-2.5734,-2.5754,-2.5805,-2.5818,-2.5832,-2.5842,-2.5829,-2.5883,-2.5888,-2.5893,-2.591,-2.5917,-2.5838,-2.5838,-2.5838,-2.5837,0,-2.5501,-2.5536,-2.5561,-2.5602,-2.5625,-2.5661,-2.5679,-2.5701,-2.5707,-2.5722,-2.5766,-2.5791,-2.5827,-2.5839,-2.5845,-2.5892,-2.5886,-2.5881,-2.5865,-2.59,-2.5917,-2.5923,-2.5839,-2.5839,-2.5839,-2.5838,0,0,-2.5545,-2.5594,-2.5603,-2.5622,-2.5659,-2.5685,-2.5721,-2.5757,-2.5776,-2.5804,-2.5834,-2.5879,-2.5875,-2.5895,-2.5903,-2.5926,-2.5964,-2.5917,-2.5918,-2.5925,-2.6018,-2.6022,-2.603,-2.5964,-2.5965,-2.5967,-2.6015,0,-2.559,-2.5655,-2.5669,-2.5724,-2.5757,-2.5761,-2.5793,-2.5818,-2.5833,-2.5862,-2.5878,-2.5911,-2.5902,-2.5914,-2.5937,-2.5955,-2.5983,-2.5951,-2.5992,-2.5993,-2.5985,-2.6038,-2.6043,-2.6088,-2.6022,-2.6023,-2.6024,0,-2.5651,-2.5682,-2.5741,-2.5775,-2.5789,-2.5817,-2.5851,-2.5879,-2.5908,-2.5917,-2.5941,-2.5946,-2.5983,-2.5966,-2.6017,-2.5995,-2.6012,-2.6024,-2.6026,-2.603,-2.6011,-2.6044,-2.6102,-2.6109,-2.6034,-2.6033,-2.6032,0,-2.5678,-2.5734,-2.5777,-2.5793,-2.5833,-2.5852,-2.587,-2.5898,-2.5919,-2.5949,-2.5962,-2.5996,-2.6014,-2.6039,-2.6053,-2.604,-2.6103,-2.6087,-2.6112,-2.6111,-2.6125,-2.6124,-2.6187,-2.6136,-2.6136,-2.6135,-2.6135,0,-2.5727,-2.5763,-2.579,-2.5816,-2.5856,-2.5872,-2.5911,-2.5928,-2.5953,-2.5983,-2.5988,-2.6016,-2.6033,-2.6062,-2.6074,-2.6114,-2.6122,-2.613,-2.6133,-2.613,-2.6129,-2.6142,-2.6139,-2.6137,-2.6137,-2.6136,-2.6136,0,-2.5763,-2.5782,-2.583,-2.5864,-2.5874,-2.5902,-2.5931,-2.5957,-2.5972,-2.6009,-2.6019,-2.6042,-2.6078,-2.6094,-2.6137,-2.6145,-2.6191,-2.6191,-2.6182,-2.6183,-2.6206,-2.6204,-2.628,-2.6291,-2.6232,-2.6233,-2.6233,0,-2.5793,-2.5821,-2.5859,-2.588,-2.5898,-2.5931,-2.5953,-2.5969,-2.5992,-2.6028,-2.6049,-2.6084,-2.6114,-2.617,-2.619,-2.6223,-2.6225,-2.6249,-2.623,-2.6226,-2.6225,-2.6224,-2.6227,-2.6252,-2.6253,-2.6253,-2.6254,0,-2.5844,-2.5853,-2.5885,-2.592,-2.5947,-2.5975,-2.6003,-2.6019,-2.604,-2.6065,-2.6101,-2.6124,-2.6169,-2.6205,-2.6239,-2.6256,-2.6259,-2.626,-2.6267,-2.6265,-2.6258,-2.6262,-2.6191,-2.6258,-2.6258,-2.6257,-2.6257,-2.6257,-2.5879,-2.5904,-2.5935,-2.5971,-2.5994,-2.602,-2.6046,-2.6065,-2.6096,-2.6135,-2.6142,-2.6181,-2.621,-2.6257,-2.6276,-2.6306,-2.63,-2.6311,-2.6314,-2.6316,-2.6318,-2.6253,-2.6312,-2.6312,-2.6312,-2.6312,-2.6312,0,-2.5931,-2.5951,-2.5984,-2.6024,-2.6051,-2.6052,-2.6083,-2.6106,-2.6141,-2.6168,-2.6198,-2.624,-2.6274,-2.6298,-2.6333,-2.6353,-2.6355,-2.6361,-2.636,-2.6364,-2.6321,-2.6311,-2.6359,-2.6359,-2.6359,-2.6359,-2.6359,-2.6359,-2.5961,-2.6005,-2.6017,-2.6072,-2.6092,-2.6131,-2.6149,-2.6173,-2.6195,-2.6242,-2.6271,-2.6287,-2.6313,-2.635,-2.6381,-2.6387,-2.64,-2.6407,-2.6413,-2.6372,-2.6367,-2.6362,-2.6353,-2.641,-2.641,-2.6454,-2.6454,-2.6454]}]]